Location: Le Hiès Ruisseau
(43.3000°N, 0.4500°W)
Time: 02:26:19
(UTC+00:00)

ATLAS 2AS CENTAUR R/B - Pass Details

Date: 28 January 2023
Orbit: 986 x 1226 km, 63.7° (Epoch: 23 March)

Event Time Altitude Azimuth Distance (km) Brightness Sun altitude
Rises 21:01:52 0° 316° (NW) 3,922 6.3 -42.4°
Reaches altitude 10° 21:04:54 10° 307° (NW) 2,921 5.5 -42.9°
Enters shadow 21:09:01 27° 274° (W) 1,898 4.3 -43.6°
